Home > Weather > Portsmouth > Past weeks

Flag for United Kingdom Past Weather in Portsmouth, England, United Kingdom — Yesterday and Last 2 Weeks

Now
57 °F

Passing clouds.


Feels Like: 57 °F
Forecast: 53 / 64 °F
Wind: 2 mph from Southwest

Location: Southampton / Weather Centre

Current Time: Jun 25, 2016 at 12:49:47 AM

Latest Report: Jun 24, 2016 at 10:50 PM


Visibility: N/A

Pressure: 30.07 "Hg

Humidity: 82%

Dew Point: 52 °F

Location of PortsmouthLocation

Past Weather in Portsmouth — Graph

°F

Portsmouth Temperature Yesterday

Maximum temperature yesterday: 64 °F (at 12:20 PM)
Minimum temperature yesterday: 50 °F (at 5:50 AM)
Average temperature yesterday: 61 °F

High & Low Weather Summary for the Past Weeks

 TemperatureHumidityPressure
High70 °F (Jun 20, 4:20 PM)100% (Jun 12, 10:20 AM)30.27 "Hg (Jun 12, 10:20 AM)
Low50 °F (Jun 24, 5:50 AM)56% (Jun 11, 2:50 PM)29.39 "Hg (Jun 14, 5:50 PM)
Average61 °F79%29.85 "Hg
* Reported Jun 10 5:50 AM — Jun 24 10:50 PM, Portsmouth, Weather by CustomWeather, © 2016

Note: Actual official high and low records may vary slightly from our data, if they occured in-between our weather recording intervals... More about our weather records

Advertising

Portsmouth Weather History for the Previous 24 Hours

Scroll right to see more
 ConditionsComfort  
Time TempWeatherWind HumidityBarometerVisibility
10:50 PM
Fri, Jun 24
57 °FPassing clouds.2 mph82%30.07 "HgN/A
10:20 PM57 °FPassing clouds.1 mph82%30.07 "HgN/A
9:50 PM57 °FPassing clouds.3 mph82%30.07 "HgN/A
9:20 PM57 °FPassing clouds.8 mph82%30.07 "HgN/A
8:50 PM59 °FPassing clouds.9 mph77%30.07 "HgN/A
8:20 PM63 °FPassing clouds.8 mph59%30.07 "HgN/A
7:50 PM63 °FPassing clouds.8 mph59%30.04 "HgN/A
7:20 PM63 °FScattered clouds.9 mph64%30.04 "HgN/A
6:50 PM63 °FScattered clouds.9 mph68%30.04 "HgN/A
6:20 PM63 °FScattered clouds.14 mph64%30.07 "HgN/A
5:50 PM63 °FScattered clouds.14 mph68%30.07 "HgN/A
5:20 PM63 °FScattered clouds.12 mph73%30.07 "HgN/A
4:50 PM63 °FScattered clouds.15 mph68%30.07 "HgN/A
4:20 PM61 °FScattered showers. Scattered clouds.15 mph77%30.07 "HgN/A
3:50 PM63 °FScattered clouds.18 mph73%30.07 "HgN/A
3:20 PM63 °FScattered clouds.17 mph73%30.07 "HgN/A
2:50 PM63 °FScattered clouds.16 mph68%30.07 "HgN/A
2:20 PM64 °FScattered clouds.18 mph68%30.07 "HgN/A
1:50 PM64 °FScattered clouds.17 mph64%30.09 "HgN/A
1:20 PM64 °FScattered clouds.16 mph64%30.09 "HgN/A
12:50 PM64 °FScattered clouds.15 mph68%30.09 "HgN/A
12:20 PM64 °FScattered clouds.15 mph73%30.09 "HgN/A
11:50 AM63 °FScattered clouds.14 mph77%30.09 "HgN/A
11:20 AM63 °FScattered clouds.13 mph73%30.09 "HgN/A
10:50 AM63 °FScattered clouds.10 mph73%30.09 "HgN/A
10:20 AM63 °FPartly sunny.9 mph73%30.09 "HgN/A
9:50 AM63 °FScattered clouds.7 mph73%30.09 "HgN/A
9:20 AM63 °FScattered clouds.6 mph73%30.09 "HgN/A
8:50 AM59 °FScattered clouds.5 mph82%30.09 "HgN/A
8:20 AM59 °FPassing clouds.6 mph82%30.09 "HgN/A
7:50 AM57 °FPassing clouds.5 mph88%30.09 "HgN/A
7:20 AM55 °FPassing clouds.2 mph94%30.09 "HgN/A
6:50 AM54 °FSunny.1 mph94%30.07 "Hg10 mi
6:20 AM52 °FSunny.No wind94%30.07 "Hg10 mi
5:50 AM50 °FClear.No wind94%30.07 "Hg10 mi
Weather by CustomWeather, © 2016

See weather overviewHow to use our weather pages